Portada
METAR-TAF:

METAR-TAF

Aeroports :

Tokushima, Japó

latitud: 34-08N, longitud: 134-37E, altitud: 8 m

Observació

L'informe es va fer fa 1 hora i 6 minuts, a les 23:00 UTC
Vent 10 kt del Oest/Nord-Oest
Temperatura 9°C
Humitat 81%
Pressió 1029 hPa
Visibilitat 10 km o més
Escasses núvols a una alçada de 2000 ft
Cel ennuvolat a una alçada de 3500 ft

METAR: RJOS 212300Z 29010KT 9999 FEW020 BKN035 09/06 Q1029

Hora: 09:06 (00:06 UTC)


TAF: manca

Observacions i pronòstics meteorològics de més de 4000 aeroports (METAR i TAF).

Les estacions disponibles són els punts grocs i vermells al mapa.

Posi el ratolí al punt desitjat per veure el nom de l'estació.

Feu clic per veure les observacions i els pronòstics meteorològics.

Per canviar el mapa: feu clic els botons verds amb una creu de color negre per apropar; al botó verd amb un guió per allunyar la imatge; o en les fletxes verdes per a mapes adjacents.


METAR-TAF: